MST,Max TemperatureF,Mean TemperatureF,Min TemperatureF,Max Dew PointF,MeanDew PointF,Min DewpointF,Max Humidity, Mean Humidity, Min Humidity, Max Sea Level PressureIn, Mean Sea Level PressureIn, Min Sea Level PressureIn, Max VisibilityMiles, Mean VisibilityMiles, Min VisibilityMiles, Max Wind SpeedMPH, Mean Wind SpeedMPH, Max Gust SpeedMPH,PrecipitationIn, CloudCover, Events, WindDirDegrees
2012-11-1,55,44,32,31,28,21,82,56,30,30.01,29.85,29.78,10,10,10,22,4,30,0.00,5,,296
2012-11-2,48,36,24,31,28,22,82,62,42,30.20,30.11,29.99,10,10,10,13,4,15,T,5,,340
2012-11-3,54,38,21,32,24,18,92,60,28,30.29,30.20,30.14,10,10,10,14,3,22,0.00,3,,263
2012-11-4,53,47,40,36,33,30,70,58,46,30.39,30.27,30.12,10,10,10,13,4,16,0.00,7,,317
2012-11-5,62,48,33,38,32,27,82,56,29,30.38,30.24,30.13,10,10,10,25,7,38,0.00,1,,303
2012-11-6,64,45,26,33,28,23,92,60,27,30.33,30.19,29.98,10,10,8,15,3,20,0.00,0,,192
2012-11-7,60,43,26,34,28,22,85,58,31,30.03,29.90,29.77,10,9,1,26,7,37,T,5,,291
2012-11-8,30,26,22,28,24,19,92,85,78,29.94,29.77,29.64,10,3,0,14,5,18,0.32,8,Fog-Snow,311
2012-11-9,24,16,7,22,14,3,96,88,80,29.98,29.74,29.62,8,1,0,12,5,20,0.30,8,Fog-Snow,315
2012-11-10,11,0,-11,3,-1,-13,95,79,63,30.28,29.96,29.75,10,5,1,9,3,13,0.01,7,Snow,285
2012-11-11,21,8,-6,9,0,-9,88,72,56,30.57,30.29,29.93,10,8,2,6,3,7,T,6,Snow,183
2012-11-12,32,14,-4,23,10,-6,91,77,63,30.55,30.44,30.32,10,10,7,8,2,9,0.00,6,,70
2012-11-13,38,29,20,25,22,18,88,70,52,30.35,30.28,30.23,10,10,2,7,2,8,0.00,7,,331
2012-11-14,39,27,14,28,21,13,92,78,64,30.43,30.28,30.18,10,10,7,9,3,13,0.00,7,,181
2012-11-15,35,20,5,21,10,1,96,76,56,30.52,30.37,30.25,10,8,0,7,2,7,0.00,1,Fog,119
2012-11-16,34,22,9,32,22,8,100,85,69,30.22,30.10,29.98,10,6,0,9,1,10,0.06,5,Fog-Rain,147
2012-11-17,44,30,15,31,24,14,100,79,57,30.15,30.01,29.74,10,5,0,23,4,31,0.00,4,Fog,164
2012-11-18,43,31,18,34,24,12,73,61,48,30.12,29.88,29.68,10,10,6,22,6,31,0.01,3,Rain,269
2012-11-19,42,28,14,29,22,10,80,69,57,30.23,30.12,29.99,10,10,10,29,11,37,0.00,1,,178
2012-11-20,46,44,42,34,32,30,70,64,58,29.98,29.92,29.83,10,9,0,24,12,32,0.00,3,,176
2012-11-21,45,36,26,36,30,17,100,79,58,30.09,29.81,29.66,10,6,0,24,7,32,0.18,7,Fog-Rain-Snow,315
2012-11-22,32,25,17,19,15,12,84,65,45,30.59,30.42,30.10,10,10,10,16,5,22,0.00,2,,266
2012-11-23,43,29,15,25,18,11,88,69,49,30.58,30.40,30.20,10,10,10,9,3,12,0.00,1,,58
2012-11-24,43,35,27,31,27,22,78,61,43,30.17,30.06,29.97,10,10,10,21,6,28,T,6,Rain,308
2012-11-25,32,20,8,28,23,5,92,73,53,30.40,30.03,29.92,10,6,1,16,6,18,0.04,8,Snow,304
2012-11-26,26,14,1,13,5,-2,91,76,60,30.47,30.42,30.35,10,10,8,9,3,9,0.00,0,,147
2012-11-27,29,16,2,16,8,-2,91,75,58,30.47,30.38,30.12,10,10,8,7,2,8,0.00,0,,150
2012-11-28,36,24,12,24,18,9,92,72,52,30.29,30.14,29.97,10,10,9,7,1,9,0.00,1,,168
2012-11-29,47,39,31,30,27,23,76,57,38,30.04,29.93,29.83,10,10,10,17,7,22,0.00,5,,197
2012-11-30,46,40,33,36,30,27,89,71,53,29.85,29.72,29.62,10,9,1,29,5,39,0.05,5,Rain,171